TimePST,TemperatureF,Dew PointF,Humidity,Sea Level PressureIn,VisibilityMPH,Wind Direction,Wind SpeedMPH,Gust SpeedMPH,PrecipitationIn,Events,Conditions,WindDirDegrees,DateUTC
12:52 AM,39.0,27.0,62,29.63,-9999.0,North,3.5,-,N/A,,Unknown,360,2013-03-06 08:52:00
1:52 AM,37.0,27.0,67,29.64,-9999.0,West,4.6,-,N/A,,Unknown,280,2013-03-06 09:52:00
2:52 AM,37.0,26.1,65,29.63,-9999.0,SSE,5.8,-,N/A,,Unknown,150,2013-03-06 10:52:00
3:52 AM,39.0,25.0,57,29.61,-9999.0,SE,5.8,-,N/A,,Unknown,140,2013-03-06 11:52:00
4:52 AM,37.0,25.0,62,29.63,-9999.0,Calm,Calm,-,N/A,,Unknown,0,2013-03-06 12:52:00
5:52 AM,41.0,30.9,67,29.61,-9999.0,SSE,24.2,38.0,N/A,,Unknown,160,2013-03-06 13:52:00
6:52 AM,37.9,28.9,70,29.63,-9999.0,SSE,9.2,-,N/A,,Unknown,160,2013-03-06 14:52:00
7:52 AM,45.0,30.0,56,29.61,-9999.0,SSE,26.5,32.2,N/A,,Unknown,160,2013-03-06 15:52:00
8:52 AM,48.0,25.0,41,29.63,-9999.0,South,23.0,36.8,N/A,,Unknown,170,2013-03-06 16:52:00
9:06 AM,44.6,28.4,53,29.66,-9999.0,SW,25.3,33.4,N/A,,Unknown,230,2013-03-06 17:06:00
9:52 AM,35.1,32.0,89,29.72,-9999.0,SSW,20.7,47.2,N/A,,Unknown,200,2013-03-06 17:52:00
10:52 AM,43.0,24.1,47,29.70,-9999.0,SSW,29.9,46.0,0.01,,Unknown,200,2013-03-06 18:52:00
11:52 AM,48.9,12.9,24,29.68,-9999.0,SSW,32.2,51.8,N/A,,Unknown,210,2013-03-06 19:52:00
12:52 PM,48.9,12.9,24,29.67,-9999.0,SSW,38.0,50.6,N/A,,Unknown,200,2013-03-06 20:52:00
1:52 PM,48.9,12.9,24,29.70,-9999.0,SW,32.2,42.6,N/A,,Unknown,220,2013-03-06 21:52:00
2:52 PM,43.0,21.0,42,29.77,-9999.0,WSW,33.4,41.4,N/A,,Unknown,240,2013-03-06 22:52:00
3:52 PM,42.1,18.0,38,29.79,-9999.0,SW,29.9,41.4,N/A,,Unknown,220,2013-03-06 23:52:00
4:52 PM,41.0,18.0,40,29.83,-9999.0,SW,27.6,38.0,N/A,,Unknown,220,2013-03-07 00:52:00
5:52 PM,37.9,15.1,39,29.85,-9999.0,SW,20.7,28.8,N/A,,Unknown,220,2013-03-07 01:52:00
6:52 PM,36.0,15.1,43,29.90,-9999.0,SW,18.4,-,N/A,,Unknown,230,2013-03-07 02:52:00
7:52 PM,34.0,16.0,48,29.91,-9999.0,SSW,11.5,20.7,N/A,,Unknown,200,2013-03-07 03:52:00
8:04 PM,32.0,15.8,51,29.89,-9999.0,SSE,11.5,-,N/A,,Unknown,150,2013-03-07 04:04:00
8:52 PM,30.9,16.0,54,29.94,-9999.0,South,12.7,-,N/A,,Unknown,190,2013-03-07 04:52:00
9:52 PM,30.0,17.1,59,29.99,-9999.0,SSW,11.5,-,N/A,,Unknown,210,2013-03-07 05:52:00
10:52 PM,28.0,17.1,63,29.99,-9999.0,SSW,9.2,-,N/A,,Unknown,200,2013-03-07 06:52:00
11:52 PM,26.1,17.1,69,29.99,-9999.0,South,9.2,-,N/A,,Unknown,180,2013-03-07 07:52:00